IAM3181 LIRZ-LIML

Flight info

Callsign IAM3181
Flight time N/A
Altitude 38000
Route GITOD M726 IPGOR DCT LOMED DCT BEROK DCT MIVKI DCT GOLAS DCT MEBUR
Aircraft A319/M-SDE3FGHIRWY/LB1

Departure

Time N/A
Airport Perugia San Francesco d'Assisi – Umbria International Airport (LIRZ)

Arrival

Time 2026-05-05 21:01
Airport Milano Linate Airport (LIML)
Time Latitude Longitude Altitude Speed Heading
2026-05-05 20:30 44.94482 9.11857 10983 ft 281 kts 302°
2026-05-05 20:31 44.95421 9.09447 10973 ft 282 kts 290°
2026-05-05 20:31 44.95647 9.06730 10973 ft 286 kts 264°
2026-05-05 20:31 44.94974 9.04087 10974 ft 291 kts 238°
2026-05-05 20:31 44.93501 9.02081 10976 ft 296 kts 213°
2026-05-05 20:32 44.91654 9.00823 10983 ft 297 kts 204°
2026-05-05 20:32 44.89728 8.99752 10981 ft 297 kts 202°
2026-05-05 20:32 44.87775 8.98760 10974 ft 298 kts 196°
2026-05-05 20:32 44.85711 8.98618 10966 ft 297 kts 171°
2026-05-05 20:33 44.83862 8.99697 10964 ft 284 kts 142°
2026-05-05 20:33 44.82626 9.01818 10965 ft 280 kts 113°
2026-05-05 20:33 44.82220 9.04442 10740 ft 274 kts 90°
2026-05-05 20:33 44.82285 9.07139 10329 ft 275 kts 84°
2026-05-05 20:34 44.82446 9.09800 10023 ft 272 kts 83°
2026-05-05 20:34 44.82626 9.12479 9975 ft 274 kts 83°
2026-05-05 20:34 44.82808 9.15149 9971 ft 274 kts 82°
2026-05-05 20:34 44.83118 9.17792 9961 ft 272 kts 68°
2026-05-05 20:35 44.84125 9.20017 9965 ft 266 kts 39°
2026-05-05 20:35 44.85720 9.21274 9975 ft 262 kts 17°
2026-05-05 20:35 44.87450 9.22077 9973 ft 261 kts 15°
2026-05-05 20:35 44.89184 9.22843 9970 ft 259 kts 15°
2026-05-05 20:36 44.90872 9.23601 9745 ft 256 kts 15°
2026-05-05 20:36 44.92572 9.24379 9366 ft 256 kts 16°
2026-05-05 20:36 44.94237 9.25153 9040 ft 255 kts 16°
2026-05-05 20:36 44.95911 9.25937 8721 ft 253 kts 17°
2026-05-05 20:37 44.97581 9.26725 8394 ft 251 kts 17°
2026-05-05 20:37 44.98697 9.27252 8162 ft 251 kts 17°
2026-05-05 20:37 45.00888 9.28289 7710 ft 250 kts 17°
2026-05-05 20:37 45.02549 9.29075 7373 ft 249 kts 18°
2026-05-05 20:38 45.04195 9.29857 7038 ft 248 kts 18°
2026-05-05 20:38 45.05837 9.30637 6703 ft 247 kts 18°
2026-05-05 20:38 45.07481 9.31289 6365 ft 247 kts
2026-05-05 20:38 45.09184 9.31458 6026 ft 246 kts 358°
2026-05-05 20:39 45.10904 9.31312 5700 ft 245 kts 355°
2026-05-05 20:39 45.12609 9.31132 5374 ft 245 kts 355°
2026-05-05 20:39 45.14303 9.30952 5056 ft 244 kts 355°
2026-05-05 20:39 45.15984 9.30773 4744 ft 243 kts 355°
2026-05-05 20:40 45.17675 9.30592 4515 ft 238 kts 355°
2026-05-05 20:40 45.19305 9.30417 4336 ft 231 kts 355°
2026-05-05 20:40 45.20889 9.30248 4070 ft 230 kts 355°
2026-05-05 20:40 45.22489 9.30076 3778 ft 229 kts 355°
2026-05-05 20:41 45.24073 9.29906 3495 ft 228 kts 355°
2026-05-05 20:41 45.25669 9.29734 3209 ft 227 kts 355°
2026-05-05 20:41 45.27241 9.29565 3014 ft 225 kts 356°
2026-05-05 20:41 45.28753 9.29402 2993 ft 213 kts 356°
2026-05-05 20:42 45.30211 9.29246 2892 ft 206 kts 356°
2026-05-05 20:42 45.31645 9.29091 2643 ft 206 kts 356°
2026-05-05 20:42 45.33057 9.28940 2368 ft 198 kts 356°
2026-05-05 20:42 45.34403 9.28794 2101 ft 188 kts 356°
2026-05-05 20:43 45.35651 9.28660 1912 ft 172 kts 356°
2026-05-05 20:43 45.36776 9.28538 1742 ft 153 kts 356°
2026-05-05 20:43 45.37791 9.28429 1507 ft 140 kts 356°
2026-05-05 20:43 45.38719 9.28329 1294 ft 127 kts 356°
2026-05-05 20:44 45.39593 9.28235 1116 ft 125 kts 356°
2026-05-05 20:44 45.40454 9.28143 947 ft 124 kts 357°
2026-05-05 20:44 45.41318 9.28044 789 ft 124 kts 356°
2026-05-05 20:44 45.42172 9.27948 636 ft 124 kts 358°
2026-05-05 20:45 45.43921 9.27766 562 ft 131 kts 357°
2026-05-05 20:45 45.44821 9.27667 1283 ft 133 kts 355°
2026-05-05 20:45 45.45708 9.27548 2044 ft 132 kts 355°
2026-05-05 20:46 45.46662 9.27428 2626 ft 145 kts 355°
2026-05-05 20:46 45.47770 9.27296 2934 ft 181 kts 355°
2026-05-05 20:46 45.49108 9.27144 2898 ft 197 kts 356°
2026-05-05 20:46 45.50473 9.27009 2948 ft 200 kts
2026-05-05 20:47 45.51788 9.27557 2970 ft 200 kts 36°
2026-05-05 20:47 45.52658 9.29089 2989 ft 200 kts 62°
2026-05-05 20:47 45.53418 9.30759 2979 ft 200 kts 40°
2026-05-05 20:47 45.54659 9.31570 2984 ft 200 kts
2026-05-05 20:48 45.56011 9.31130 2985 ft 202 kts 327°
2026-05-05 20:48 45.56900 9.29616 2986 ft 204 kts 290°
2026-05-05 20:48 45.56984 9.27633 2988 ft 205 kts 253°
2026-05-05 20:48 45.56225 9.25941 2988 ft 206 kts 217°
2026-05-05 20:49 45.54919 9.25207 2991 ft 205 kts 181°
2026-05-05 20:49 45.53500 9.25491 2991 ft 205 kts 157°
2026-05-05 20:49 45.52403 9.26714 2990 ft 203 kts 121°
2026-05-05 20:49 45.52034 9.28632 2991 ft 201 kts 83°
2026-05-05 20:50 45.52534 9.30434 2991 ft 200 kts 47°
2026-05-05 20:50 45.53265 9.31233 2988 ft 199 kts 25°
2026-05-05 20:50 45.54706 9.32824 3029 ft 200 kts 51°
2026-05-05 20:50 45.55274 9.34611 2980 ft 202 kts 89°
2026-05-05 20:51 45.54799 9.36453 2944 ft 204 kts 134°
2026-05-05 20:51 45.53601 9.37516 2977 ft 204 kts 154°
2026-05-05 20:51 45.52326 9.38390 2984 ft 204 kts 153°
2026-05-05 20:51 45.51030 9.39295 2988 ft 204 kts 153°
2026-05-05 20:52 45.49751 9.40194 2990 ft 204 kts 153°
2026-05-05 20:52 45.48476 9.41090 2990 ft 204 kts 153°
2026-05-05 20:52 45.47201 9.41988 2991 ft 205 kts 153°
2026-05-05 20:52 45.45914 9.42897 2991 ft 205 kts 153°
2026-05-05 20:53 45.44643 9.43793 2991 ft 204 kts 153°
2026-05-05 20:53 45.43364 9.44693 2991 ft 204 kts 153°
2026-05-05 20:53 45.42079 9.45596 2992 ft 204 kts 153°
2026-05-05 20:53 45.40799 9.46497 2992 ft 204 kts 153°
2026-05-05 20:54 45.39504 9.47406 2992 ft 204 kts 153°
2026-05-05 20:54 45.38183 9.48078 2986 ft 205 kts 172°
2026-05-05 20:54 45.36753 9.48150 2990 ft 205 kts 181°
2026-05-05 20:54 45.35325 9.48061 2991 ft 205 kts 182°
2026-05-05 20:55 45.33919 9.47662 2979 ft 205 kts 208°
2026-05-05 20:55 45.32894 9.46277 2988 ft 203 kts 236°
2026-05-05 20:55 45.32167 9.44552 2785 ft 202 kts 242°
2026-05-05 20:55 45.31513 9.42796 2545 ft 202 kts 243°
2026-05-05 20:56 45.30870 9.41017 2490 ft 199 kts 243°
2026-05-05 20:56 45.30236 9.39259 2492 ft 200 kts 243°
2026-05-05 20:56 45.29594 9.37469 2492 ft 200 kts 247°
2026-05-05 20:56 45.29379 9.35562 2474 ft 198 kts 282°
2026-05-05 20:57 45.29884 9.33739 2496 ft 196 kts 299°
2026-05-05 20:57 45.30541 9.32135 2576 ft 181 kts 302°
2026-05-05 20:57 45.31199 9.30617 2521 ft 176 kts 303°
2026-05-05 20:57 45.31897 9.29198 2493 ft 173 kts 319°
2026-05-05 20:58 45.32950 9.28573 2408 ft 166 kts 354°
2026-05-05 20:58 45.34089 9.28541 2193 ft 163 kts
2026-05-05 20:58 45.35227 9.28571 1996 ft 164 kts
2026-05-05 20:58 45.36372 9.28569 1767 ft 160 kts 359°
2026-05-05 20:59 45.37450 9.28480 1540 ft 149 kts 356°
2026-05-05 20:59 45.38436 9.28364 1347 ft 136 kts 356°
2026-05-05 20:59 45.39339 9.28261 1125 ft 125 kts 356°
2026-05-05 20:59 45.40197 9.28174 983 ft 124 kts 356°
2026-05-05 21:00 45.41057 9.28073 853 ft 124 kts 356°
2026-05-05 21:00 45.41917 9.27979 693 ft 123 kts 357°
2026-05-05 21:00 45.42764 9.27889 514 ft 123 kts 357°
2026-05-05 21:00 45.43629 9.27799 356 ft 123 kts 357°
2026-05-05 21:01 45.44380 9.27723 346 ft 88 kts 355°
2026-05-05 21:01 45.44803 9.27673 356 ft 41 kts 355°
2026-05-05 21:01 45.45055 9.27647 355 ft 38 kts 356°
2026-05-05 21:01 45.45341 9.27687 350 ft 42 kts 22°
2026-05-05 21:02 45.45449 9.27774 350 ft 3 kts 49°
2026-05-05 21:02 45.45464 9.27814 350 ft 5 kts 68°
2026-05-05 21:02 45.45488 9.27825 350 ft 4 kts 339°
2026-05-05 21:02 45.45535 9.27813 350 ft 8 kts 359°
2026-05-05 21:03 45.45604 9.27815 351 ft 10 kts
2026-05-05 21:03 45.45682 9.27818 353 ft 11 kts
2026-05-05 21:03 45.45759 9.27822 355 ft 8 kts 11°
2026-05-05 21:03 45.45775 9.27863 356 ft 4 kts 83°
2026-05-05 21:04 45.45775 9.27888 356 ft 0 kts 93°